Hourly Data Report for April 11, 2017

MIRAMICHI RCS
NEW BRUNSWICK

47°00'34.000" N
65°27'54.000" W
33.00 m
8100989
71744
ACQ

Download Data

Hourly Data (April 2017)
Hourly Data Report for April 11, 2017
TIME
LST
Temp Definition
°C
Dew Point Definition
°C
Rel Hum Definition
%
Precip. Amount Definition
mm

Wind Dir Definition
10's deg

Wind Spd Definition
km/h
Visibility Definition
km
Stn Press Definition
kPa
Hmdx Definition


Wind Chill Definition


Weather Definition


00:00 7.1 1.4 67 0.0 22 23   100.93     LegendNANA
01:00 6.0 1.3 72 0.0 22 20   100.92     LegendNANA
02:00 5.9 1.6 74 0.0 23 17   100.95     LegendNANA
03:00 5.6 1.7 76 0.0 23 19   100.92     LegendNANA
04:00 5.7 2.0 77 0.0 23 16   100.92     LegendNANA
05:00 4.9 1.8 80 0.0 24 13   100.93     LegendNANA
06:00 4.3 1.8 84 0.0 24 12   101.01     LegendNANA
07:00 5.8 2.3 78 0.0 25 7   101.16     LegendNANA
08:00 7.3 2.6 72 0.0 25 10   101.26     LegendNANA
09:00 9.0 3.4 68 0.0 24 7   101.30     LegendNANA
10:00 12.9 4.5 57 0.0 19 5   101.33     LegendNANA
11:00 15.4 6.6 56 0.0 30 9   101.42     LegendNANA
12:00 14.7 6.6 58 0.0 30 10   101.43     LegendNANA
13:00 14.5 5.7 55 0.0 34 8   101.47     LegendNANA
14:00 13.7 4.8 55 0.0 33 8   101.53     LegendNANA
15:00 14.3 5.2 54 0.0 3 9   101.51     LegendNANA
16:00 9.7 3.4 65 0.0 5 15   101.58     LegendNANA
17:00 5.5 1.3 75 0.0 4 13   101.71     LegendNANA
18:00 4.6 2.0 83 0.0 3 8   101.81     LegendNANA
19:00 3.9 2.6 91 0.0 6 7   101.82     LegendNANA
20:00 3.8 2.9 94 0.0 3 7   101.91     LegendNANA
21:00 3.8 2.8 93 0.0 4 9   101.90     LegendNANA
22:00 4.0 2.9 93 0.0 4 6   101.93     LegendNANA
23:00 3.2 2.1 92 0.0 9 7   101.97     LegendNANA

Notes on Data Quality.

Legend

  • E = Estimated
  • M = Missing
  • NA = Not Available*
  • [empty] = Indicates an unobserved value
Date modified: